When you browse on this site, cookies collect data to enhance your experience and personalize the content and advertising you see.
Visit our Privacy Policy to learn more. By continuing to use the site, you agree to this use of cookies and data.
  • In United Kingdom
  • List of Countries
  • For 7 days
  • Water Temperature
  • Satellite Maps
  • Weather Map
  • Weather Widgets
  • user-avatar
    Login

    Hourly Weather Qiryat Bialik

    Today, 24 March, Sunday

    Time Temperature Precipitation Wind Pressure Humidity
    00:00 +15°C° 0 mm 1 mps 753 mmHg 79%
    01:00 +15°C° 0 mm 1 mps 753 mmHg 78%
    02:00 +15°C° 0 mm 2 mps 753 mmHg 74%
    03:00 +15°C° 0 mm 2 mps 752 mmHg 73%
    04:00 +15°C° 0 mm 2 mps 752 mmHg 72%
    05:00 +15°C° 0 mm 2 mps 752 mmHg 72%
    06:00 +16°C° 0 mm 2 mps 752 mmHg 69%
    07:00 +16°C° 0 mm 2 mps 752 mmHg 66%
    08:00 +18°C° 0 mm 1 mps 751 mmHg 64%
    09:00 +18°C° 0 mm 2 mps 751 mmHg 61%
    10:00 +19°C° 0 mm 3 mps 751 mmHg 59%
    11:00 +20°C° 0 mm 4 mps 751 mmHg 57%
    12:00 +20°C° 0.1 mm 4 mps 751 mmHg 59%
    13:00 +20°C° 0.1 mm 4 mps 751 mmHg 61%
    14:00 +19°C° 0.1 mm 5 mps 751 mmHg 63%
    15:00 +19°C° 0 mm 5 mps 751 mmHg 66%
    16:00 +17°C° 0 mm 5 mps 750 mmHg 70%
    17:00 +17°C° 0 mm 4 mps 750 mmHg 74%
    18:00 +15°C° 0.2 mm 4 mps 750 mmHg 77%
    19:00 +14°C° 0.2 mm 4 mps 750 mmHg 80%
    20:00 +13°C° 0.2 mm 3 mps 750 mmHg 84%
    21:00 +13°C° 0 mm 3 mps 751 mmHg 83%
    22:00 +14°C° 0 mm 2 mps 751 mmHg 81%
    23:00 +14°C° 0 mm 2 mps 751 mmHg 80%

    Tomorrow, 25 March, Monday

    Time Temperature Precipitation Wind Pressure Humidity
    00:00 +14°C° 1.1 mm 2 mps 751 mmHg 82%
    01:00 +14°C° 1.1 mm 2 mps 750 mmHg 83%
    02:00 +14°C° 1.1 mm 2 mps 750 mmHg 84%
    03:00 +13°C° 1.7 mm 2 mps 750 mmHg 85%
    04:00 +13°C° 1.7 mm 2 mps 750 mmHg 87%
    05:00 +13°C° 1.7 mm 1 mps 750 mmHg 88%
    06:00 +13°C° 0.6 mm 2 mps 750 mmHg 88%
    07:00 +13°C° 0.6 mm 2 mps 751 mmHg 88%
    08:00 +13°C° 0.6 mm 2 mps 751 mmHg 87%
    09:00 +14°C° 0.2 mm 2 mps 752 mmHg 82%
    10:00 +15°C° 0.2 mm 2 mps 752 mmHg 77%
    11:00 +16°C° 0.2 mm 2 mps 752 mmHg 71%
    12:00 +15°C° 0.6 mm 4 mps 752 mmHg 71%
    13:00 +15°C° 0.6 mm 5 mps 752 mmHg 72%
    14:00 +15°C° 0.6 mm 7 mps 752 mmHg 72%
    15:00 +15°C° 0.1 mm 7 mps 753 mmHg 71%
    16:00 +14°C° 0.1 mm 6 mps 753 mmHg 69%
    17:00 +14°C° 0.1 mm 6 mps 753 mmHg 68%
    18:00 +14°C° 0 mm 5 mps 754 mmHg 66%
    19:00 +13°C° 0 mm 4 mps 754 mmHg 64%
    20:00 +13°C° 0 mm 3 mps 755 mmHg 62%
    21:00 +12°C° 0 mm 4 mps 755 mmHg 64%
    22:00 +12°C° 0 mm 4 mps 756 mmHg 65%
    23:00 +12°C° 0 mm 4 mps 756 mmHg 67%

    Day after tomorrow, 26 March, Tuesday

    Time Temperature Precipitation Wind Pressure Humidity
    00:00 +12°C° 0 mm 4 mps 756 mmHg 68%
    01:00 +12°C° 0 mm 3 mps 756 mmHg 69%
    02:00 +12°C° 0 mm 3 mps 757 mmHg 70%
    03:00 +12°C° 0 mm 3 mps 757 mmHg 71%
    04:00 +13°C° 0 mm 2 mps 757 mmHg 71%
    05:00 +13°C° 0 mm 2 mps 757 mmHg 72%
    06:00 +14°C° 0.1 mm 2 mps 758 mmHg 72%
    07:00 +14°C° 0.1 mm 2 mps 758 mmHg 71%
    08:00 +15°C° 0.1 mm 2 mps 759 mmHg 71%
    09:00 +16°C° 0 mm 3 mps 759 mmHg 67%
    10:00 +17°C° 0 mm 3 mps 759 mmHg 63%
    11:00 +18°C° 0 mm 4 mps 759 mmHg 60%
    12:00 +17°C° 0.1 mm 5 mps 759 mmHg 62%
    13:00 +17°C° 0.1 mm 6 mps 758 mmHg 65%
    14:00 +17°C° 0.1 mm 6 mps 758 mmHg 67%
    15:00 +16°C° 0 mm 6 mps 758 mmHg 69%
    16:00 +16°C° 0 mm 5 mps 758 mmHg 71%
    17:00 +15°C° 0 mm 4 mps 758 mmHg 72%
    18:00 +15°C° 0.1 mm 4 mps 759 mmHg 76%
    19:00 +14°C° 0.1 mm 4 mps 759 mmHg 80%
    20:00 +13°C° 0.1 mm 3 mps 760 mmHg 84%
    21:00 +13°C° 0.1 mm 3 mps 760 mmHg 84%
    22:00 +13°C° 0.1 mm 3 mps 760 mmHg 84%
    23:00 +13°C° 0.1 mm 3 mps 760 mmHg 84%

    27 March, Wednesday

    Time Temperature Precipitation Wind Pressure Humidity
    00:00 +13°C° 0.1 mm 3 mps 760 mmHg 83%
    01:00 +12°C° 0.1 mm 3 mps 760 mmHg 82%
    02:00 +12°C° 0.1 mm 3 mps 760 mmHg 82%
    03:00 +12°C° 0.2 mm 3 mps 760 mmHg 81%
    04:00 +12°C° 0.2 mm 3 mps 760 mmHg 80%
    05:00 +12°C° 0.2 mm 3 mps 760 mmHg 80%
    06:00 +13°C° 0.2 mm 3 mps 760 mmHg 78%
    07:00 +14°C° 0.2 mm 3 mps 761 mmHg 77%
    08:00 +14°C° 0.2 mm 3 mps 761 mmHg 76%
    09:00 +15°C° 0.5 mm 4 mps 761 mmHg 74%
    10:00 +17°C° 0.5 mm 4 mps 762 mmHg 73%
    11:00 +17°C° 0.5 mm 5 mps 762 mmHg 71%
    12:00 +17°C° 0.6 mm 5 mps 762 mmHg 72%
    13:00 +17°C° 0.6 mm 5 mps 761 mmHg 73%
    14:00 +17°C° 0.6 mm 6 mps 761 mmHg 74%
    15:00 +17°C° 0.5 mm 5 mps 762 mmHg 76%
    16:00 +17°C° 0.5 mm 5 mps 762 mmHg 79%
    17:00 +17°C° 0.5 mm 4 mps 762 mmHg 82%
    18:00 +16°C° 0.2 mm 3 mps 762 mmHg 84%
    19:00 +16°C° 0.2 mm 3 mps 763 mmHg 86%
    20:00 +15°C° 0.2 mm 2 mps 763 mmHg 88%
    21:00 +15°C° 0.2 mm 2 mps 763 mmHg 89%
    22:00 +15°C° 0.2 mm 2 mps 763 mmHg 89%
    23:00 +15°C° 0.2 mm 2 mps 763 mmHg 90%

    28 March, Thursday

    Time Temperature Precipitation Wind Pressure Humidity
    00:00 +15°C° 0.2 mm 2 mps 763 mmHg 90%
    01:00 +15°C° 0.2 mm 2 mps 763 mmHg 90%
    02:00 +15°C° 0.2 mm 2 mps 763 mmHg 90%
    03:00 +14°C° 0.1 mm 2 mps 763 mmHg 90%
    04:00 +14°C° 0.1 mm 2 mps 763 mmHg 90%
    05:00 +14°C° 0.1 mm 2 mps 763 mmHg 90%
    06:00 +14°C° 0.1 mm 3 mps 763 mmHg 88%
    07:00 +16°C° 0.1 mm 3 mps 764 mmHg 86%
    08:00 +16°C° 0.1 mm 3 mps 764 mmHg 84%
    09:00 +17°C° 0 mm 4 mps 764 mmHg 78%
    10:00 +18°C° 0 mm 4 mps 764 mmHg 73%
    11:00 +19°C° 0 mm 4 mps 763 mmHg 68%
    12:00 +19°C° 0 mm 4 mps 763 mmHg 69%
    13:00 +19°C° 0 mm 4 mps 762 mmHg 70%
    14:00 +19°C° 0 mm 4 mps 762 mmHg 71%
    15:00 +19°C° 0 mm 3 mps 762 mmHg 74%
    16:00 +18°C° 0 mm 2 mps 762 mmHg 76%
    17:00 +18°C° 0 mm 2 mps 761 mmHg 79%
    18:00 +17°C° 0 mm 2 mps 761 mmHg 81%
    19:00 +16°C° 0 mm 2 mps 761 mmHg 84%
    20:00 +15°C° 0 mm 2 mps 761 mmHg 87%
    21:00 +15°C° 0 mm 2 mps 761 mmHg 84%
    22:00 +15°C° 0 mm 1 mps 760 mmHg 82%
    23:00 +15°C° 0 mm 1 mps 760 mmHg 80%

    29 March, Friday

    Time Temperature Precipitation Wind Pressure Humidity
    00:00 +15°C° 0 mm 2 mps 760 mmHg 78%
    01:00 +15°C° 0 mm 2 mps 759 mmHg 75%
    02:00 +15°C° 0 mm 2 mps 759 mmHg 73%
    03:00 +14°C° 0.2 mm 3 mps 759 mmHg 74%
    04:00 +14°C° 0.2 mm 4 mps 759 mmHg 74%
    05:00 +13°C° 0.2 mm 4 mps 759 mmHg 75%
    06:00 +14°C° 0.1 mm 5 mps 758 mmHg 73%
    07:00 +15°C° 0.1 mm 6 mps 758 mmHg 72%
    08:00 +15°C° 0.1 mm 7 mps 758 mmHg 71%
    09:00 +16°C° 0.4 mm 7 mps 757 mmHg 72%
    10:00 +16°C° 0.4 mm 7 mps 756 mmHg 74%
    11:00 +16°C° 0.4 mm 7 mps 756 mmHg 75%
    12:00 +17°C° 0 mm 7 mps 755 mmHg 70%
    13:00 +20°C° 0 mm 7 mps 755 mmHg 65%
    14:00 +21°C° 0 mm 6 mps 754 mmHg 60%
    15:00 +20°C° 0.2 mm 6 mps 753 mmHg 64%
    16:00 +20°C° 0.2 mm 6 mps 753 mmHg 68%
    17:00 +19°C° 0.2 mm 5 mps 752 mmHg 72%
    18:00 +17°C° 0 mm 7 mps 752 mmHg 70%
    19:00 +17°C° 0 mm 8 mps 751 mmHg 68%
    20:00 +17°C° 0 mm 9 mps 751 mmHg 66%
    21:00 +16°C° 0.2 mm 8 mps 751 mmHg 69%
    22:00 +16°C° 0.2 mm 7 mps 751 mmHg 73%
    23:00 +15°C° 0.2 mm 5 mps 751 mmHg 76%
    Show more